Location: Bergnershof
(48.9468°N, 10.9431°E)
Time: 02:40:54
(UTC+00:00)

Cosmos 2278 Rocket - Pass Details

Date: 03 March 2021
Orbit: 841 x 845 km, 71.0° (Epoch: 11 April)

Event Time Altitude Azimuth Distance (km) Brightness Sun altitude
Rises 18:39:45 0° 335° (NNW) 3,416 5.9 -16.6°
Reaches altitude 10° 18:42:31 10° 346° (NNW) 2,477 4.9 -17.1°
Maximum altitude 18:47:31 31° 47° (NE) 1,456 3.1 -17.9°
Enters shadow 18:48:56 27° 74° (ENE) 1,562 3.1 -18.1°
